Location: Songkhla
(7.2000°N, 100.6000°E)
Time: 20:22:02
(UTC+07:00)

ISS - Pass Details

Date: 23 April 2026
Orbit: 414 x 424 km, 51.6° (Epoch: 19 May)

Event Time Altitude Azimuth Distance (km) Brightness Sun altitude
Rises 00:07:13 0° 190° (S) 2,337 - -70.3°
Reaches altitude 10° 00:09:44 10° 171° (S) 1,475 - -70.4°
Maximum altitude 00:12:07 18° 125° (SE) 1,070 - -70.4°
Drops below altitude 10° 00:14:30 10° 78° (ENE) 1,476 - -70.4°
Sets 00:17:00 0° 59° (ENE) 2,338 - -70.4°
